Theta_e
287 286 286 284 284 285 287 289 289 290 291 292 291 291 292 293 295 296 297 300 301 302 305 306 309 313 317 319 318 316 315 314
286 286 286 284 284 284 286 288 289 291 292 291 291 291 291 291 293 295 297 299 300 301 303 304 307 311 316 316 316 315 314 313
285 285 285 285 283 284 285 287 288 290 291 292 291 292 292 292 293 294 295 298 299 300 301 302 304 309 313 312 312 311 309 307
284 285 285 284 283 283 284 285 288 289 291 291 291 291 291 291 292 294 295 296 298 298 298 300 301 303 303 304 303 303 303 304
283 284 284 283 282 283 284 285 287 288 290 290 290 290 291 291 292 292 294 294 296 296 296 298 299 300 300 299 298 296 295 295
279 279 280 281 281 282 283 284 286 287 289 290 291 291 291 291 291 292 292 293 294 294 295 296 296 297 297 296 295 293 291 291
281 281 281 280 281 282 279 283 286 285 286 289 290 290 290 290 290 291 291 292 292 292 292 293 294 294 294 294 292 291 290 288
282 282 282 281 283 281 282 283 285 285 285 284 287 287 288 288 290 289 289 290 290 290 291 291 292 293 293 291 292 290 288 286
284 283 281 281 280 282 282 283 284 285 285 285 285 286 286 286 288 288 289 288 289 289 290 290 291 292 291 290 289 286 285 284
285 284 282 281 282 282 282 282 283 284 284 284 284 284 284 284 285 285 286 286 287 287 288 288 289 291 290 288 285 284 283 284
286 283 282 281 281 282 282 282 282 283 284 283 283 284 283 283 283 283 283 284 284 285 285 285 286 290 290 286 283 283 282 283
285 284 283 282 282 282 281 282 283 283 283 282 282 283 283 282 282 282 282 282 279 280 281 281 283 285 290 288 283 282 281 281
284 283 282 281 282 281 281 282 280 280 279 278 277 281 281 279 277 278 278 277 276 277 278 278 279 284 287 289 287 286 281 280
284 280 277 279 280 279 278 277 275 276 275 274 274 277 278 277 276 276 275 276 276 277 277 278 278 279 286 288 289 288 281 280
279 278 279 277 279 277 276 277 277 277 275 275 276 274 272 277 278 277 276 276 277 277 277 275 276 276 277 280 280 283 282 283
281 281 281 278 279 276 274 276 277 277 277 277 277 276 276 277 277 278 277 278 276 277 277 275 276 278 282 281 278 277 279 275
281 278 281 280 280 279 278 277 278 277 277 279 278 276 276 276 275 282 284 284 285 286 280 276 282 285 286 286 286 285 285 280
285 283 280 283 282 280 279 280 279 281 279 277 276 277 277 275 275 276 277 285 286 286 287 288 284 286 287 287 287 286 285 277
283 284 283 283 285 282 282 281 282 281 279 280 279 279 278 278 278 277 276 277 276 281 286 287 288 288 287 288 287 284 284 282
281 283 284 284 286 282 283 283 282 282 281 279 277 277 278 278 276 276 275 276 274 271 277 278 287 287 287 287 284 283 282 282
Wind_Speed
3 4 4 3 2 1 3 3 4 3 3 4 5 4 5 4 5 7 7 6 6 5 5 5 3 3 2 6 5 6 3 3
3 3 4 3 2 1 2 4 4 4 5 4 3 4 4 4 4 3 4 6 6 6 5 4 2 2 3 5 6 7 5 4
4 4 3 3 2 1 2 2 3 3 3 4 3 3 3 4 5 5 5 4 3 5 5 4 2 2 4 5 5 6 6 5
3 5 4 3 2 1 2 2 3 3 3 3 4 4 4 4 5 4 5 4 4 4 5 4 5 7 6 7 8 7 6 6
5 6 5 4 3 3 2 1 3 3 3 3 4 4 3 3 3 3 3 3 4 6 6 6 6 7 7 8 8 7 7 7
5 5 4 5 3 2 3 2 2 4 4 4 4 4 4 4 4 4 4 4 5 6 5 5 5 4 6 7 7 7 8 7
8 7 6 6 7 4 3 4 3 3 3 3 4 5 5 5 5 5 5 5 6 6 5 6 5 9 9 8 7 6 6 6
11 11 8 8 7 7 6 3 3 4 2 3 4 4 5 5 6 6 5 5 6 6 7 7 6 9 10 9 6 6 6 5
8 7 7 7 5 6 6 6 4 3 3 2 3 3 4 5 5 6 5 5 4 5 5 5 5 9 9 9 6 6 6 5
7 6 7 8 8 8 7 6 6 5 4 4 3 3 2 3 4 4 4 5 5 4 5 5 5 6 6 6 5 5 4 3
8 6 8 8 8 8 8 7 7 6 6 5 4 4 4 3 3 2 2 3 3 4 4 5 3 5 5 4 3 4 1 2
7 9 9 9 8 7 7 9 7 6 6 6 5 5 5 3 1 3 4 3 3 3 3 2 3 4 3 5 2 2 2 1
7 7 7 8 9 7 9 5 6 6 5 6 5 4 3 5 2 1 3 4 3 2 2 2 3 3 4 2 2 4 3 2
7 6 3 7 8 9 7 6 5 5 5 4 3 3 4 5 3 2 3 3 2 2 2 3 1 1 4 5 3 3 1 1
6 5 7 6 6 4 6 7 8 8 7 5 5 4 3 2 3 3 3 3 3 3 4 3 2 2 2 2 1 1 2 3
7 7 8 7 7 5 5 7 6 6 6 6 5 6 5 4 5 5 4 5 4 4 3 3 4 5 8 7 4 4 5 5
6 5 7 7 8 7 7 8 6 5 4 5 5 5 4 4 4 11 12 11 15 11 7 3 10 5 9 13 12 11 14 3
8 8 4 6 7 7 9 9 9 8 6 4 4 5 5 3 4 6 4 16 17 16 16 15 11 12 12 11 13 13 13 3
5 5 5 5 8 6 8 10 10 8 7 6 6 6 5 5 6 3 3 4 4 11 13 14 16 15 13 12 12 8 12 7
3 3 6 6 7 5 7 7 7 6 5 5 4 4 4 4 4 4 4 5 3 2 4 7 16 14 14 14 8 9 8 9
Wind_Direction
210 186 151 163 134 348 344 25 4 2 86 14 349 353 2 36 12 354 342 343 1 1 9 14 34 91 132 165 152 144 130 131
212 190 156 136 124 111 21 355 24 2 351 37 9 0 2 7 10 354 324 353 5 357 9 359 355 117 121 125 148 144 139 152
211 180 178 162 145 131 85 30 19 11 356 3 16 2 33 1 351 352 359 349 1 18 14 339 3 70 134 136 111 130 121 90
188 209 190 197 161 165 86 42 30 18 356 12 11 9 11 13 7 5 349 342 6 46 29 10 32 65 69 86 81 77 96 107
205 218 179 171 190 154 114 71 69 47 4 18 10 9 1 11 40 29 358 4 21 42 33 27 36 52 69 79 78 75 69 63
206 210 193 158 171 168 134 71 31 47 27 9 14 9 10 21 21 43 36 23 37 53 37 44 51 54 86 89 101 103 94 81
200 195 194 203 175 180 209 154 114 82 36 9 20 23 14 15 23 29 37 41 50 51 49 58 65 88 93 103 102 93 95 96
194 193 189 194 180 179 182 154 128 125 81 45 22 31 28 15 24 31 36 43 44 47 50 54 55 75 85 87 98 108 111 122
191 182 185 177 166 156 163 160 162 163 145 127 72 55 37 36 37 31 21 35 39 44 47 57 50 70 89 87 85 79 81 90
181 165 160 170 166 152 161 168 167 182 189 177 158 122 78 63 57 34 42 34 34 39 46 59 50 61 60 71 86 89 93 111
167 150 155 173 157 155 166 172 192 191 189 178 175 166 155 138 100 74 65 90 64 53 41 36 64 67 88 82 75 103 78 81
157 168 178 156 155 171 171 195 195 173 166 170 181 180 176 157 135 138 118 96 79 69 33 34 9 7 86 132 116 147 146 146
163 171 164 160 162 173 200 200 165 160 167 170 175 176 163 153 136 107 131 132 112 81 353 347 356 346 335 302 214 183 150 183
173 163 179 174 177 177 210 163 152 150 179 187 165 166 163 156 161 143 155 151 206 170 192 234 240 298 321 327 307 174 119 163
144 176 199 202 200 210 172 160 159 174 182 180 182 187 190 182 174 173 188 193 202 204 219 231 258 230 214 192 150 183 116 153
180 192 212 185 208 193 182 155 176 183 181 185 185 193 195 213 193 205 211 179 188 221 201 199 243 232 208 191 186 176 171 117
209 196 215 194 200 193 180 180 175 188 190 197 192 192 199 201 249 244 240 230 234 231 203 233 249 279 223 216 212 197 168 148
211 209 186 197 210 196 185 178 186 201 188 176 186 191 197 202 211 247 277 240 239 236 235 230 228 232 239 225 215 205 186 211
203 208 195 193 234 190 185 187 198 200 182 187 190 194 192 199 216 210 215 248 268 250 235 235 236 230 225 226 206 214 216 217
196 213 189 191 232 189 177 188 194 191 194 187 176 182 191 189 196 204 214 232 232 311 290 257 240 240 231 223 215 219 222 224